Weather History for Covington, KY

Change the Weather History Date:

Thursday, April 18, 2013

  Actual Average Record
Temperature  
Mean Temperature 71 °F 55 °F  
Max Temperature 81 °F 66 °F 87 °F (1896)
Min Temperature 61 °F 45 °F 18 °F (1875)
Degree Days  
Heating Degree Days 0 11  
Month to date heating degree days 183 238  
Since 1 July heating degree days 4748 4731  
Cooling Degree Days 6 1  
Month to date cooling degree days 23 6  
Year to date cooling degree days 23 6  
Growing Degree Days 22 (Base 50)    
Moisture  
Dew Point 57 °F    
Average Humidity 67    
Maximum Humidity 93    
Minimum Humidity 41    
Precipitation  
Precipitation 0.00 in 0.13 in 1.93 in (1887)
Month to date precipitation 1.69 2.27  
Year to date precipitation 11.20 12.04  
Snow  
Snow 0.00 in 0.10 in 3.30 in (1953)
Month to date snowfall T 0.5  
Since 1 July snowfall 25.2 22.1  
Snow Depth -    
Sea Level Pressure  
Sea Level Pressure 29.79 in    
Wind  
Wind Speed 18 mph (South)    
Max Wind Speed 32 mph    
Max Gust Speed 40 mph    
Visibility 10 miles    
Events      
T = Trace of Precipitation, MM = Missing Value Source: NWS Daily Summary

Daily Weather History Graph

Daily Weather History Graph

Search for Another Location

Airport:

Trip Planner

Search our weather history database for the weather conditions in past years. The results will help you decide how hot, cold, wet, or windy it might be!

Date:

Astronomy

Apr. 18, 2013 Rise Set
Actual Time 6:57 AM EDT 8:19 PM EDT
Civil Twilight 6:29 AM EDT 8:47 PM EDT
Nautical Twilight 5:56 AM EDT 9:20 PM EDT
Astronomical Twilight 5:21 AM EDT 9:55 PM EDT
Moon 1:08 PM EDT (4/18) 2:32 AM EDT (4/18)
Length of Visible Light 14h 17m
Length of Day
13h 21m
First Quarter, 51% of the Moon is Illuminated
Apr 18
First Quarter
Apr 25
Full
May 2
Last Quarter
May 9
New
May 18
First Quarter

Hourly Weather History & Observations

Time (EDT) Temp. Heat Index Dew Point Humidity Pressure Visibility Wind Dir Wind Speed Gust Speed Precip Events Conditions
12:52 AM 64.9 °F - 62.1 °F 90% 29.94 in 10.0 mi SSE 12.7 mph - N/A   Clear
1:52 AM 64.9 °F - 61.0 °F 87% 29.92 in 10.0 mi SSE 12.7 mph - N/A   Scattered Clouds
2:52 AM 64.0 °F - 60.1 °F 87% 29.89 in 10.0 mi South 10.4 mph - N/A   Scattered Clouds
3:52 AM 63.0 °F - 60.1 °F 90% 29.86 in 10.0 mi South 11.5 mph - N/A   Clear
4:52 AM 63.0 °F - 59.0 °F 87% 29.86 in 10.0 mi South 12.7 mph - N/A   Partly Cloudy
5:52 AM 63.0 °F - 59.0 °F 87% 29.86 in 10.0 mi South 10.4 mph - N/A   Partly Cloudy
6:52 AM 64.0 °F - 59.0 °F 84% 29.85 in 10.0 mi South 15.0 mph - N/A   Mostly Cloudy
8:52 AM 69.1 °F - 61.0 °F 75% 29.88 in 10.0 mi South 16.1 mph 27.6 mph N/A   Partly Cloudy
10:52 AM 73.9 °F - 62.1 °F 66% 29.86 in 10.0 mi South 17.3 mph 39.1 mph N/A   Scattered Clouds
11:52 AM 75.9 °F - 61.0 °F 60% 29.83 in 10.0 mi South 28.8 mph 40.3 mph N/A   Mostly Cloudy
12:52 PM 79.0 °F - 59.0 °F 50% 29.82 in 10.0 mi South 23.0 mph 36.8 mph N/A   Mostly Cloudy
1:52 PM 80.1 °F 80.7 °F 59.0 °F 48% 29.79 in 10.0 mi South 31.1 mph 38.0 mph N/A   Mostly Cloudy
2:52 PM 80.1 °F 80.7 °F 59.0 °F 48% 29.78 in 10.0 mi South 23.0 mph 35.7 mph N/A   Mostly Cloudy
3:52 PM 81.0 °F 81.3 °F 59.0 °F 47% 29.75 in 10.0 mi South 21.9 mph 32.2 mph N/A   Mostly Cloudy
4:52 PM 79.0 °F - 57.9 °F 48% 29.73 in 10.0 mi South 19.6 mph 31.1 mph N/A   Overcast
5:52 PM 78.1 °F - 55.0 °F 45% 29.71 in 10.0 mi South 23.0 mph 32.2 mph N/A   Overcast
6:52 PM 75.9 °F - 54.0 °F 46% 29.68 in 10.0 mi South 18.4 mph - N/A   Overcast
7:52 PM 75.9 °F - 52.0 °F 43% 29.67 in 10.0 mi South 17.3 mph 26.5 mph N/A   Overcast
8:52 PM 75.9 °F - 50.0 °F 40% 29.66 in 10.0 mi South 16.1 mph 27.6 mph N/A   Overcast
9:52 PM 75.9 °F - 50.0 °F 40% 29.67 in 10.0 mi South 19.6 mph 29.9 mph N/A   Overcast
10:52 PM 75.0 °F - 51.1 °F 43% 29.64 in 10.0 mi South 20.7 mph 34.5 mph N/A   Overcast
11:52 PM 73.9 °F - 52.0 °F 46% 29.60 in 10.0 mi South 18.4 mph 27.6 mph N/A   Overcast